Theta_e
314 314 315 317 316 315 316 318 318 317 312 311 320 336 338 336 335 337 334 321 322 333 335 335 334 334 335 335 335 333 334 333
315 314 313 312 313 312 315 316 318 320 316 312 312 327 335 337 337 336 337 327 321 324 330 335 333 333 334 334 332 333 333 332
312 310 309 308 308 308 309 311 314 319 320 314 312 312 331 335 338 337 336 331 323 323 324 333 332 331 333 334 332 332 333 332
309 307 306 304 303 305 305 306 309 314 319 316 312 311 318 334 336 336 337 335 330 331 324 331 329 329 331 329 328 331 332 333
306 306 303 302 301 301 300 303 304 310 318 319 312 312 314 329 334 336 338 336 334 331 331 329 326 325 328 326 324 330 333 333
305 303 302 301 298 299 298 301 305 307 315 318 313 311 313 325 329 334 338 338 336 334 334 333 328 323 325 326 325 330 332 331
303 302 301 299 296 296 298 303 306 309 314 317 314 310 314 328 332 333 335 338 337 335 331 336 332 324 323 323 325 326 329 331
302 301 299 297 296 295 298 302 307 311 314 315 312 311 309 328 330 331 333 335 337 335 335 333 334 327 324 325 326 327 328 331
302 300 298 295 294 294 298 299 304 308 314 311 310 310 311 324 331 330 330 325 327 337 336 334 332 330 326 327 328 326 329 331
301 299 297 294 293 294 297 296 301 305 310 315 309 311 310 326 330 331 331 326 321 329 335 335 334 332 331 329 327 326 327 332
300 298 295 294 293 294 297 296 297 302 310 316 317 311 316 330 331 331 333 324 322 326 335 335 336 332 332 332 329 329 326 329
299 297 295 293 294 294 297 296 297 302 309 318 323 319 322 330 333 334 320 331 332 334 334 335 336 334 335 336 335 334 332 330
298 296 293 293 295 295 297 297 297 299 304 313 321 327 325 329 330 330 332 334 338 337 336 334 335 334 335 334 334 333 334 335
296 294 292 294 296 294 296 297 297 298 301 310 318 324 326 330 331 330 332 334 334 334 336 335 332 335 333 335 335 334 336 333
295 293 292 294 295 293 295 296 297 298 301 307 315 319 321 323 327 330 331 332 333 333 334 334 333 334 334 335 336 335 335 332
295 293 291 291 294 294 295 295 296 296 301 305 309 312 316 319 321 325 327 329 330 331 332 332 333 334 334 335 335 334 331 329
295 293 291 291 291 291 292 293 295 296 299 301 304 309 312 314 317 320 320 323 327 326 326 329 326 325 326 329 330 330 330 329
294 293 292 291 290 290 291 292 293 294 298 301 303 304 304 307 312 318 318 320 322 322 324 327 326 325 324 325 325 326 327 327
294 293 292 291 290 290 291 291 291 292 296 298 301 305 299 301 307 316 309 318 319 321 324 324 323 325 325 324 325 326 326 327
Wind_Speed
26 29 29 29 37 43 41 36 35 39 37 39 34 42 43 41 39 38 40 41 43 37 29 27 28 24 23 27 27 22 19 17
27 31 34 37 37 37 42 41 36 37 40 39 44 40 45 44 43 43 42 44 45 44 37 34 34 30 27 27 27 24 22 20
30 33 37 36 39 37 38 42 39 36 40 43 40 45 44 47 46 46 46 50 46 49 45 39 39 33 30 30 27 25 24 25
35 37 38 39 41 38 40 41 40 40 35 41 41 42 43 47 48 47 47 50 46 48 49 43 44 38 37 37 32 28 31 27
35 37 41 41 43 40 41 40 40 41 40 36 45 41 45 46 46 48 46 49 46 47 47 48 49 42 41 39 35 32 29 34
36 38 39 38 38 42 41 39 39 38 39 39 46 43 43 44 47 49 46 45 47 44 46 47 50 47 45 43 38 36 37 30
34 35 37 40 40 41 43 34 35 35 34 38 41 45 42 42 43 44 45 41 47 42 46 45 48 49 46 46 42 41 40 34
37 40 41 45 49 50 45 34 34 27 26 34 42 41 53 39 45 46 47 40 35 39 44 48 48 51 48 45 45 43 42 36
37 40 41 45 49 50 43 36 32 23 21 31 37 41 45 40 38 43 50 48 20 36 43 48 50 52 50 47 45 43 42 40
36 40 41 45 50 49 42 41 32 28 21 18 33 36 40 38 42 43 46 53 55 48 47 49 49 47 46 46 47 46 45 41
36 38 43 45 49 48 42 42 37 30 21 5 16 32 34 40 40 45 39 48 55 53 48 50 49 46 42 42 43 42 42 42
35 37 45 44 49 49 45 44 40 33 26 16 6 17 29 37 34 33 49 48 46 39 38 41 42 41 43 42 43 40 38 37
32 35 43 46 49 50 48 46 43 37 31 22 15 7 12 23 27 25 12 30 27 26 26 29 29 32 40 44 43 39 38 37
33 41 44 46 47 49 48 46 44 39 34 25 23 17 6 4 7 15 17 15 15 21 26 25 20 30 36 40 42 40 41 37
31 39 42 41 42 45 45 45 42 42 37 29 23 19 15 13 10 2 3 11 15 21 23 19 19 28 35 37 40 40 41 34
31 34 39 38 39 41 41 42 39 38 36 31 26 19 15 11 7 5 7 6 10 9 10 15 24 30 32 35 38 34 33 32
27 29 33 36 37 37 36 37 36 35 31 31 27 20 17 13 7 3 3 1 3 6 7 7 13 19 18 20 24 27 30 29
25 27 28 29 33 32 35 36 31 31 29 26 27 23 22 17 8 2 5 5 7 10 10 13 18 19 21 22 20 20 24 30
22 23 25 25 27 28 29 33 29 27 27 27 24 21 25 19 12 4 7 3 6 7 14 17 13 18 20 23 19 20 21 26
Wind_Direction
328 323 324 317 312 307 306 303 287 277 267 253 250 239 229 222 223 218 231 223 218 209 199 204 201 198 204 199 200 204 204 202
334 335 326 317 309 305 299 300 291 281 265 256 245 246 234 224 217 213 224 228 216 216 205 202 209 197 200 213 205 197 198 204
332 329 325 323 317 311 304 300 294 285 269 254 247 239 242 229 219 213 215 229 217 215 212 204 211 200 201 208 204 198 196 211
335 333 332 326 323 316 308 302 295 285 273 254 247 247 240 230 223 214 210 221 223 208 216 205 216 207 208 215 214 201 195 211
336 335 335 330 324 315 311 304 296 286 261 268 241 239 234 233 227 218 209 214 223 209 213 207 221 215 212 221 218 204 203 205
343 339 333 327 325 321 321 306 296 290 266 260 238 240 234 228 232 227 214 210 213 216 204 208 219 219 219 222 218 208 206 221
344 337 331 333 338 328 329 317 307 292 271 261 234 232 232 218 217 226 221 207 211 216 210 208 213 225 221 224 222 217 217 210
344 340 340 339 347 340 338 332 320 302 274 257 228 231 231 227 216 221 221 207 207 220 220 207 211 223 225 222 226 220 218 217
342 341 341 340 349 342 344 346 344 319 312 240 231 231 232 237 216 216 214 216 229 233 231 224 215 218 224 221 225 226 221 216
339 340 343 347 348 350 351 355 353 359 323 260 232 231 226 228 220 214 229 219 222 233 238 229 218 214 220 221 223 226 224 222
340 340 344 350 350 357 356 3 1 4 10 255 241 224 228 220 223 223 217 217 204 223 234 228 219 218 217 217 223 224 225 223
340 340 348 350 354 2 1 9 10 17 27 43 136 207 227 221 224 225 240 215 207 205 216 219 216 224 219 215 218 219 222 224
340 341 349 356 357 5 3 10 13 19 21 32 52 128 185 215 218 221 261 207 193 198 222 223 220 222 221 219 220 221 220 221
342 343 353 358 359 4 2 8 13 15 17 24 45 55 118 135 225 232 220 218 222 220 217 223 222 222 221 223 224 221 221 226
344 344 352 357 358 360 1 5 9 15 18 20 36 47 47 56 77 123 231 224 227 227 225 224 228 233 222 225 221 222 224 223
347 346 348 355 355 357 2 4 3 11 17 17 24 32 30 17 34 83 94 172 176 184 203 213 219 223 221 220 215 221 221 224
347 345 347 350 352 355 356 358 3 6 14 17 22 27 33 26 344 322 325 75 146 223 195 193 208 210 197 199 210 219 224 221
349 347 348 347 346 351 351 354 1 3 11 17 18 16 27 28 13 347 48 260 240 249 258 229 226 216 213 217 223 228 228 228
351 350 347 347 346 348 351 349 1 5 12 16 17 8 12 17 30 17 15 151 182 164 214 236 213 227 233 230 229 234 245 242